User: anonymous   Login
Location: *
(37.5724°S, 58.0067°E)
Time: 03:29:01
(UTC+00:00)
Language:

Delta 2 Rocket - Orbit

View from above orbital plane
View from above orbital plane
View from above satellite
View from above satellite

Ground track
Ground track

The orbit data is extracted from the following two-line orbital elements,

1 20453U 90008B   20329.23234277 +.00003131 +00000-0 +17383-3 0  9990
2 20453 035.6265 033.9721 0279668 199.1104 159.8940 14.85852816634974
Epoch (UTC): 24 November 2020 05:34:34
Eccentricity: 0.0279668
inclination: 35.6265°
perigee height: 415 km
apogee height: 806 km
right ascension of ascending node: 33.9721°
argument of perigee: 199.1104°
revolutions per day: 14.85852816
mean anomaly at epoch: 159.8940°
orbit number at epoch: 63497

The dashed part of the orbit path shows where the satellite is in the earth's shadow,  

DLR